Location: Mahannah Oil Field
(37.4664°N, 96.6003°W)
Time: 14:54:17
(UTC+00:00)

Vanguard 2 Rocket - Pass Details

Date: 24 January 2021
Orbit: 554 x 3325 km, 32.9° (Epoch: 06 March)

Event Time Altitude Azimuth Distance (km) Brightness Sun altitude
Rises 03:27:31 0° 271° (W) 3,703 10.8 -44.7°
Enters shadow 03:31:10 - 253° (WSW) 2,470 9.6 -45.5°
Reaches altitude 10° 03:31:39 10° 249° (WSW) 2,331 - -45.5°
Maximum altitude 03:34:30 15° 215° (SW) 1,790 - -46.1°
Drops below altitude 10° 03:36:56 10° 180° (S) 1,936 - -46.6°
Sets 03:39:51 0° 154° (SSE) 2,724 - -47.1°
